• Processing (Info)

  • MPEC 2015-C66 : 2015 CV12

    The following Minor Planet Electronic Circular may be linked-to from your own Web pages, but must not otherwise be redistributed electronically.

    A form allowing access to any MPEC is at the bottom of this page.


    Read MPEC 2015-C65 Read MPEC 2015-C67


    M.P.E.C. 2015-C66                                Issued 2015 Feb. 13, 14:05 UT
    
         The Minor Planet Electronic Circulars contain information on unusual
             minor planets and routine data on comets.  They are published
       on behalf of Commission 20 of the International Astronomical Union by the
              Minor Planet Center, Smithsonian Astrophysical Observatory,
                              Cambridge, MA 02138, U.S.A.
    
                 Prepared using the Tamkin Foundation Computer Network
    
                                  MPC@CFA.HARVARD.EDU
                URL https://www.minorplanetcenter.net/    ISSN 1523-6714
    
                                       2015 CV12
    
    Observations:
         K15C12V* C2015 02 09.18868 08 40 59.31 +11 14 49.4          20.8 VqEC066G96
         K15C12V  C2015 02 09.19669 08 40 59.31 +11 14 31.4          20.7 VqEC066G96
         K15C12V  C2015 02 09.20468 08 40 59.27 +11 14 14.2          20.4 VqEC066G96
         K15C12V  C2015 02 09.21267 08 40 59.31 +11 13 56.4          20.1 VqEC066G96
         K15C12V KC2015 02 09.24936 08 40 58.79 +11 12 35.3          20.4 RqEC066H36
         K15C12V KC2015 02 09.27912 08 40 58.76 +11 11 29.2          20.5 RqEC066H36
         K15C12V  C2015 02 09.31235708 40 58.84 +11 10 18.1          21.0 RtEC066H01
         K15C12V  C2015 02 09.31853108 40 58.81 +11 10 04.6          20.8 RtEC066H01
         K15C12V  C2015 02 09.32998308 40 58.78 +11 09 39.6          20.4 RtEC066H01
         K15C12V  C2015 02 09.33386208 40 58.77 +11 09 30.9          20.3 RtEC066H01
         K15C12V KC2015 02 09.39518 08 40 58.80 +11 07 16.3          20.0 RoEC066291
         K15C12V KC2015 02 09.39738 08 40 58.79 +11 07 12.2          20.4 RoEC066291
         K15C12V KC2015 02 09.39957 08 40 58.74 +11 07 07.3          20.7 RoEC066291
         K15C12V  C2015 02 10.09895608 41 06.29 +10 41 40.3          20.8 RtEC066H01
         K15C12V  C2015 02 10.10245108 41 06.30 +10 41 32.7          20.3 RtEC066H01
         K15C12V  C2015 02 10.11518408 41 06.34 +10 41 05.5          20.5 RtEC066H01
         K15C12V  C2015 02 10.12370408 41 06.35 +10 40 47.2          20.1 RtEC066H01
         K15C12V KC2015 02 10.18279 08 41 06.12 +10 38 38.4          20.3 RqEC066H36
         K15C12V KC2015 02 10.19109 08 41 06.10 +10 38 20.3          20.2 RqEC066H36
         K15C12V KC2015 02 10.19939 08 41 06.09 +10 38 02.8          20.2 RqEC066H36
         K15C12V KC2015 02 11.12596 08 41 15.08 +10 04 40.2          21.3 RoEC066291
         K15C12V KC2015 02 11.12793 08 41 15.07 +10 04 35.6          21.6 RoEC066291
         K15C12V KC2015 02 11.12989 08 41 15.09 +10 04 31.2          21.2 RoEC066291
         K15C12V  C2015 02 12.94970 08 41 33.52 +08 59 45.6          21.0 V EC066033
         K15C12V  C2015 02 12.95880 08 41 33.55 +08 59 26.5          21.0 V EC066033
         K15C12V  C2015 02 13.02958 08 41 33.97 +08 56 56.6          20.6 V EC066033
         K15C12V  C2015 02 13.04096 08 41 34.04 +08 56 32.7          20.5 V EC066033
         K15C12V  C2015 02 13.11612 08 41 34.64 +08 53 53.9          20.1 V EC066033
         K15C12V  C2015 02 13.13660 08 41 34.83 +08 53 10.7          20.1 V EC066033
    
    Observer details:
    033 Karl Schwarzschild Observatory, Tautenburg.  Observer B. Stecklum.  1.34-m
        f/4 Schmidt + CCD.
    291 LPL/Spacewatch II.  Observer R. A. Mastaler.  1.8-m f/2.7 reflector + CCD.
    G96 Mt. Lemmon Survey.  Observer R. A. Kowalski.  Measurers E. J. Christensen,
        D. C. Fuls, A. R. Gibbs, A. D. Grauer, R. E. Hill, J. A. Johnson,
        R. A. Kowalski, S. M. Larson, R. G. Matheny, F. C. Shelly.  1.5-m
        reflector + CCD.
    H01 Magdalena Ridge Observatory, Socorro.  Observer W. H. Ryan.  2.4-m f/8.9
        reflector + CCD.
    H36 Sandlot Observatory, Scranton.  Observer G. Hug.  0.56-m reflector + CCD.
    
    Orbital elements:
    2015 CV12                                                Earth MOID = 0.3146 AU
    Epoch 2014 Dec. 9.0 TT = JDT 2457000.5                  MPC
    M 346.54949              (2000.0)            P               Q
    n   0.21320389     Peri.  190.15502     -0.74440230     -0.65292790
    a   2.7750617      Node   308.14267     +0.62442468     -0.60650629
    e   0.5320080      Incl.   10.24070     +0.23655661     -0.45369073
    P   4.62           H   22.0           G   0.15           U   8
    Residuals in seconds of arc
    150209 G96  0.1-  0.4+    150209 291  0.3+  0.7-    150211 291  0.0   0.4+
    150209 G96  0.1+  0.1-    150209 291  0.2+  0.0     150211 291  0.2-  0.0
    150209 G96  0.2-  0.0     150209 291  0.5-  0.1-    150211 291  0.0   0.2-
    150209 G96  0.7+  0.4-    150210 H01  0.3-  0.2-    150212 033  0.3+  0.3-
    150209 H36  0.6+  1.2+    150210 H01  0.3-  0.3-    150212 033  0.1+  0.1-
    150209 H36  1.3+  0.4+    150210 H01  0.2-  0.1-    150213 033  0.3+  0.4-
    150209 H01  0.3-  0.1-    150210 H01  0.3-  0.1-    150213 033  0.2+  0.2-
    150209 H01  0.5-  0.0     150210 H36  0.2+  0.1+    150213 033  0.0   0.3+
    150209 H01  0.5-  0.1+    150210 H36  0.0   0.0     150213 033  0.3-  0.5+
    150209 H01  0.5-  0.1-    150210 H36  0.0   0.5+
    
    Ephemeris:
    2015 CV12                a,e,i = 2.78, 0.53, 10                  q = 1.2987
    Date    TT    R. A. (2000) Decl.     Delta      r     Elong.  Phase     V
    2015 01 14    08 40 28.8 +26 24 34   0.3571  1.3322   165.4    10.7    21.1
    ...
    2015 01 29    08 40 49.9 +18 09 20   0.3207  1.3055   179.3     0.5    20.2
    ...
    2015 02 06    08 40 44.3 +13 12 33   0.3165  1.2995   171.0     6.8    20.6
    ...
    2015 02 12    08 41 22.6 +09 33 40   0.3202  1.2989   164.9    11.4    20.8
    2015 02 13    08 41 34.2 +08 58 20   0.3213  1.2991   164.0    12.1    20.8
    2015 02 14    08 41 47.6 +08 23 25   0.3227  1.2994   163.0    12.8    20.9
    ...
    2015 02 20    08 43 48.6 +05 04 53   0.3338  1.3033   157.5    16.9    21.1
    ...
    2015 02 28    08 48 33.7 +01 15 21   0.3566  1.3135   150.9    21.5    21.4
    ...
    2015 03 15    09 03 48.5 -03 59 11   0.4207  1.3477   141.1    27.6    22.0
    
    A. U. Tomatic                (C) Copyright 2015 MPC           M.P.E.C. 2015-C66
    

    Read MPEC 2015-C65 Read MPEC 2015-C67


    MPEC number:

    Enter an MPEC number in one of the following forms:

    • 1997-B01 (the full form)
    • J97B01 (the packed version of the full form)
    • B01 (the abbreviated form)